GFSGL_250_spd_000.txt.gz
Wind_Speed
55 55 54 53 55 56 55 53 53 56 59 63 65 65 66 66 62 59 51 51 49 56 62 68 77 83 85 81 78 63 58 56 57 53 49 50 48 43 42 39 36 33 36
57 57 55 54 57 56 55 54 55 58 62 67 70 69 68 68 61 59 55 50 47 51 59 69 76 79 84 87 81 78 70 63 61 55 52 45 45 47 44 42 38 35 37
59 59 58 58 58 58 57 57 58 63 67 71 73 73 71 68 65 60 55 49 44 44 54 64 75 80 79 86 85 82 74 67 60 55 54 50 44 47 47 45 40 36 39
60 59 60 60 60 59 58 59 62 66 71 74 75 77 74 71 65 62 54 49 41 40 50 58 71 79 81 79 84 83 79 67 67 53 56 52 48 48 49 46 43 39 40
61 60 61 60 60 58 59 63 66 70 75 77 79 79 78 74 66 60 53 48 40 37 44 52 63 75 80 81 81 84 79 74 68 64 54 53 51 48 52 53 46 43 41
64 61 61 61 59 58 61 66 71 74 78 83 85 83 79 75 68 60 49 45 39 36 38 46 55 67 77 81 78 80 78 75 68 65 65 54 53 52 52 53 48 44 44
65 63 62 62 61 61 65 69 74 79 83 87 89 87 81 72 66 57 45 40 35 35 37 42 48 59 72 79 78 77 76 75 71 66 67 65 54 57 57 54 50 47 45
68 65 63 62 62 65 68 72 77 82 86 90 90 86 80 73 64 50 39 35 32 35 36 40 44 53 67 74 77 75 76 74 71 69 72 71 68 59 59 58 54 50 45
68 66 63 64 66 68 71 75 81 86 90 90 87 83 78 69 57 43 33 32 31 33 34 37 41 46 58 69 74 74 73 74 73 71 72 71 66 63 61 61 56 53 47
69 67 66 66 69 72 74 79 83 88 92 90 84 79 75 59 46 37 29 28 30 31 28 30 33 37 48 59 70 72 72 74 69 68 72 72 70 67 64 62 61 55 52
69 67 67 68 70 67 81 83 87 93 91 88 82 78 65 51 35 32 29 26 30 25 23 28 28 31 40 53 64 67 70 70 69 68 69 70 69 69 66 64 65 61 58
70 68 70 72 75 77 80 88 91 91 89 85 79 67 53 42 30 27 32 29 31 27 26 28 26 21 26 38 55 63 65 66 68 66 66 66 68 68 70 65 68 66 61
70 71 73 76 80 83 86 88 91 87 84 78 68 55 43 33 26 25 30 35 34 33 32 31 24 25 20 25 40 53 39 61 67 65 63 64 65 71 73 67 68 69 64
74 76 79 82 85 88 89 90 89 86 78 64 56 46 36 26 23 25 32 39 40 41 39 37 32 32 26 27 26 35 51 60 65 67 66 65 66 70 75 73 71 73 70
79 82 86 88 91 91 90 88 83 78 65 53 48 41 32 23 22 28 36 45 46 47 44 42 39 34 32 32 29 33 31 37 48 57 61 61 66 67 76 77 76 73 73
84 88 90 92 93 90 87 83 78 66 56 46 42 37 30 21 23 29 39 49 52 51 49 48 42 42 40 40 36 43 36 43 43 49 51 56 65 67 69 78 77 77 77
91 90 91 90 91 88 83 76 67 56 49 42 38 35 31 22 23 29 38 52 55 58 54 57 50 49 44 44 39 44 51 51 40 40 43 48 55 62 69 74 77 76 79
90 90 90 90 87 81 77 67 56 47 42 39 36 35 32 28 25 26 36 55 57 61 64 61 58 57 58 50 53 45 41 48 42 37 42 38 45 55 65 67 72 72 71
92 90 89 85 81 74 68 58 49 41 37 38 38 38 34 33 30 29 32 51 61 65 66 66 66 61 65 56 56 58 54 49 47 41 45 45 38 42 48 61 69 71 70
88 84 82 79 71 66 62 52 42 37 36 38 41 41 38 36 35 31 31 41 64 68 71 70 72 68 73 70 61 62 57 58 57 55 54 52 51 61 57 52 60 71 71
81 78 74 69 64 60 52 47 38 33 36 36 40 43 42 41 38 36 33 37 53 70 74 77 80 76 78 76 73 67 70 65 67 66 65 65 64 65 65 63 66 70 69
72 69 67 64 59 52 46 41 35 32 33 37 40 45 46 43 42 42 40 41 45 65 76 78 82 83 83 84 81 80 75 78 72 75 76 75 75 75 74 77 77 73 79
66 64 60 57 53 48 45 39 36 34 36 43 43 43 49 51 48 47 47 46 47 51 63 84 85 88 90 91 91 90 89 86 84 81 79 82 82 82 82 83 84 79 79
60 57 55 51 49 47 44 42 37 34 37 43 46 45 48 54 54 57 53 54 53 54 53 65 82 92 95 98 98 98 97 95 95 92 87 88 88 89 86 87 94 94 87
51 50 47 47 47 45 43 39 36 34 33 36 41 46 48 49 50 50 51 54 55 57 58 54 64 83 97 100 105 105 106 105 102 101 102 101 100 96 99 94 97 100 101
44 45 45 44 44 41 37 34 34 33 33 34 35 37 40 44 48 49 50 50 53 54 55 61 61 62 74 97 106 109 112 113 112 113 111 108 108 109 109 106 104 105 104

GFSGL_250_spd_003.txt.gz
Wind_Speed
61 62 60 60 58 56 54 52 52 50 49 49 50 50 52 53 57 63 63 61 56 52 46 51 55 59 68 76 79 87 84 72 68 64 60 57 52 50 46 46 44 42 39
64 64 63 65 63 60 57 56 55 54 53 53 54 56 58 59 64 67 66 64 58 53 52 48 53 57 64 75 83 84 90 86 75 70 64 60 53 49 50 49 47 45 42
68 68 68 70 67 63 60 59 58 56 56 57 58 60 63 65 68 69 68 65 62 55 52 49 52 56 61 68 82 83 89 91 83 76 66 64 57 51 49 51 50 48 45
72 72 72 71 68 66 64 62 60 58 59 60 62 64 68 69 71 72 72 69 61 56 51 50 51 51 57 65 77 86 87 91 87 80 73 67 62 57 51 49 51 54 50
75 77 75 74 72 70 66 63 62 62 60 61 64 68 69 71 76 78 74 68 61 52 48 46 46 46 52 59 70 82 85 88 92 85 78 73 67 61 58 54 53 52 49
78 80 78 76 77 72 68 65 63 63 63 64 67 69 72 74 81 82 75 65 57 49 42 40 39 41 45 52 63 76 84 83 87 89 87 76 72 64 63 56 51 49 50
82 81 80 79 79 76 71 68 65 64 65 68 70 73 78 80 84 79 71 62 50 44 37 34 34 37 42 51 59 70 81 81 82 85 84 82 75 66 64 58 53 51 50
85 83 83 81 82 77 71 67 65 65 65 69 73 77 83 86 83 77 70 58 44 39 32 31 30 34 36 43 54 63 77 83 83 82 83 81 75 69 60 60 59 54 51
87 86 85 82 81 76 70 66 65 66 67 71 76 80 86 88 80 74 64 51 39 33 28 28 28 31 30 37 48 57 71 81 82 82 83 81 75 71 68 60 56 56 51
89 88 87 87 82 76 70 69 69 64 72 76 81 85 86 84 78 68 54 43 35 27 23 25 25 27 25 27 38 53 65 74 81 80 80 79 77 74 70 70 65 58 58
93 92 91 88 80 73 70 73 66 73 79 82 85 88 85 82 72 62 45 35 31 24 23 23 22 20 20 17 27 42 57 70 77 79 76 77 73 75 70 71 70 64 59
94 95 94 82 75 72 72 74 76 79 83 87 88 87 83 72 63 52 39 31 27 22 23 22 21 21 15 20 22 31 48 66 73 76 74 72 71 73 72 72 71 72 65
98 96 87 77 74 74 76 77 77 85 87 90 89 86 80 69 49 43 32 28 23 25 25 24 27 23 17 14 14 22 39 57 67 70 70 68 70 70 66 66 70 71 70
99 89 78 75 76 78 81 85 85 90 90 88 84 80 72 56 38 34 29 25 21 29 32 34 30 30 22 21 12 13 25 41 52 61 65 66 66 67 65 63 65 68 72
92 83 80 81 83 84 82 89 92 91 90 87 80 71 61 47 33 28 25 24 21 36 38 41 41 31 30 27 22 34 32 31 25 41 61 61 62 66 65 63 64 67 68
86 86 88 89 90 90 87 88 92 91 87 81 72 63 53 42 32 25 24 21 23 41 44 50 44 42 38 31 35 36 36 40 43 41 35 42 49 66 67 63 64 66 66
91 92 94 93 92 93 91 88 87 84 78 72 63 54 45 39 34 25 24 23 26 46 50 53 49 47 44 43 44 40 39 38 34 43 55 50 48 60 61 61 60 63 65
97 95 97 96 92 91 90 86 80 73 67 64 54 47 40 37 35 33 25 25 28 47 55 57 54 55 52 49 51 46 46 44 42 45 39 39 41 47 43 42 57 58 66
99 97 95 95 93 89 83 75 69 65 60 53 48 44 38 34 35 38 33 27 28 38 59 63 64 62 56 56 59 53 49 53 48 51 55 51 43 44 51 55 56 61 68
98 97 97 91 83 76 70 65 61 56 53 49 45 42 36 35 36 41 40 34 29 33 60 71 71 69 63 60 62 59 56 52 61 60 61 53 48 46 56 61 66 64 62
98 94 85 79 73 68 64 59 54 51 49 44 41 41 37 38 41 45 46 43 36 34 44 72 78 77 74 68 68 66 64 60 59 62 62 59 59 57 54 55 57 58 56
84 79 75 70 66 63 59 54 52 48 45 44 40 39 40 41 43 45 48 48 43 38 38 64 81 77 83 75 75 75 69 68 67 66 63 63 63 67 62 58 57 61 53
75 71 67 62 58 55 53 50 48 46 45 43 41 41 40 44 46 49 48 49 51 47 41 44 72 84 89 87 87 86 81 74 77 74 73 72 73 72 67 67 70 67 66
60 57 53 51 50 48 48 46 46 46 46 45 43 42 41 43 44 45 45 50 55 53 50 46 49 73 88 97 95 91 92 89 83 84 81 81 79 81 81 77 78 79 77
50 49 46 45 45 44 44 44 46 46 45 43 39 37 37 37 40 42 44 47 49 53 56 56 49 55 72 95 101 98 98 99 97 89 96 90 89 88 91 89 87 89 89
45 44 43 43 44 44 45 44 42 40 37 35 34 32 32 33 34 36 39 41 44 48 50 54 57 56 55 68 93 105 106 105 104 102 98 98 98 98 98 98 97 96 96

GFSGL_250_spd_006.txt.gz
Wind_Speed
56 58 57 60 62 67 69 68 67 65 62 60 56 54 51 49 48 47 48 49 52 56 58 62 59 56 54 57 63 62 69 76 81 81 71 67 60 60 62 52 50 44 41
59 61 63 65 66 69 71 70 70 67 66 63 60 57 54 51 50 50 49 51 57 61 64 64 62 59 53 54 61 65 66 71 82 88 80 71 64 62 58 57 54 45 39
62 63 66 70 72 74 75 76 73 71 70 66 62 59 57 55 54 55 54 56 61 64 66 68 62 58 54 52 58 64 68 70 76 92 90 80 69 65 65 59 53 52 45
67 68 71 74 77 78 79 78 76 76 75 69 65 61 58 55 57 56 57 61 65 68 69 67 62 55 53 52 56 62 65 71 76 84 94 89 79 69 66 62 55 53 57
72 72 74 76 79 81 84 81 79 79 77 70 66 60 57 56 56 58 59 64 69 73 68 61 57 52 49 50 52 57 63 69 75 82 90 93 86 76 70 67 62 56 60
76 75 77 79 81 83 86 84 84 84 80 71 63 60 55 59 60 61 65 69 73 68 63 53 50 47 44 44 47 52 58 65 73 79 85 90 90 81 74 70 66 59 58
79 79 80 84 85 87 88 87 88 87 79 67 61 62 63 61 63 68 74 75 71 62 56 48 43 42 36 37 42 48 54 59 68 78 88 88 93 90 82 73 68 64 57
81 81 83 85 87 89 90 89 89 89 75 64 60 60 65 66 66 76 79 82 71 57 47 40 37 35 30 32 38 42 49 54 61 73 87 88 93 92 83 75 69 68 60
82 83 85 87 91 92 92 90 91 83 68 64 62 65 61 66 75 80 82 81 69 58 41 36 33 30 25 28 33 36 41 47 56 69 81 90 90 90 88 79 73 68 61
84 87 89 92 93 92 92 91 92 78 69 65 62 64 62 78 80 82 77 72 66 49 37 33 28 24 23 25 27 28 34 39 49 66 78 88 88 89 89 81 76 74 67
89 91 92 93 94 94 94 96 91 76 72 73 72 73 79 82 81 80 73 64 56 38 33 26 23 20 20 18 17 21 23 34 43 58 75 84 84 88 86 83 78 74 68
94 96 94 94 93 96 97 94 83 75 73 70 76 82 84 82 80 74 68 59 45 34 29 23 23 20 18 17 14 13 15 27 39 51 66 78 80 81 85 85 82 73 69
100 99 92 99 98 99 101 92 81 73 70 80 86 87 86 79 77 71 63 52 39 30 27 23 23 22 22 20 14 8 12 16 30 45 57 72 80 80 81 85 80 77 71
103 96 106 102 103 104 89 80 69 80 92 90 88 86 85 79 71 62 54 45 35 28 24 25 27 23 25 23 14 12 12 10 17 36 52 67 78 79 76 81 83 79 76
102 97 108 109 109 89 84 73 83 98 97 93 88 85 81 73 62 56 47 36 31 25 23 29 32 34 30 28 17 19 13 15 18 24 33 59 70 75 76 77 81 84 82
104 108 109 109 94 93 89 91 92 92 91 90 88 81 71 62 57 50 41 32 28 24 24 35 38 39 39 31 26 22 21 15 14 28 34 44 61 70 73 68 70 71 74
109 105 99 95 97 94 95 94 92 92 89 86 77 68 61 55 50 45 37 31 26 22 25 39 43 44 45 37 33 29 29 26 30 32 30 28 30 51 65 65 65 68 72
100 96 98 96 95 99 98 95 90 88 84 74 66 59 55 50 45 38 35 31 25 24 24 42 49 51 51 44 37 36 36 32 34 38 39 39 38 31 41 61 61 60 68
99 97 98 99 102 100 94 91 88 79 70 63 58 54 50 47 41 36 34 32 28 25 28 37 54 58 56 53 45 44 45 41 39 45 47 46 43 46 44 48 56 61 63
97 103 105 101 96 94 93 86 76 70 64 59 53 50 48 44 38 36 33 34 32 31 29 31 57 63 65 60 56 49 50 49 48 53 54 50 53 57 62 61 55 60 54
103 101 100 94 93 91 81 75 69 63 57 52 48 45 45 42 40 37 33 36 36 37 36 35 51 65 72 66 64 58 59 56 55 55 55 58 55 60 59 56 58 54 51
98 97 96 94 84 75 73 65 61 55 50 47 47 43 43 40 38 39 37 37 39 40 40 40 43 62 74 77 70 71 65 62 61 59 63 62 66 63 59 59 58 64 61
98 95 85 75 73 67 59 57 52 49 46 45 42 42 40 39 39 40 40 40 41 41 42 42 47 49 69 83 81 77 78 71 70 66 67 67 67 72 75 71 68 65 72
84 73 71 65 60 57 51 50 47 46 41 41 40 38 40 41 38 39 40 40 41 43 43 43 45 50 55 83 87 88 85 84 77 76 76 73 73 76 75 76 78 74 76
70 65 58 53 50 52 48 45 44 42 40 38 38 36 35 34 34 33 34 34 36 39 41 43 42 46 53 56 85 94 94 90 92 85 82 83 79 82 83 81 83 85 83
57 52 50 49 48 50 47 44 41 38 36 33 31 29 28 28 28 28 29 31 33 34 34 38 43 43 46 58 60 90 103 101 95 98 96 88 88 85 87 89 90 89 89

GFSGL_250_spd_009.txt.gz
Wind_Speed
55 55 59 57 62 64 66 68 70 71 75 79 79 76 73 66 56 50 45 41 41 43 45 47 49 55 57 60 55 54 55 57 61 68 74 80 73 63 68 63 67 62 57
55 60 58 60 64 65 68 69 72 73 77 79 81 76 78 70 59 51 47 44 42 41 43 43 48 55 58 59 57 57 57 58 62 68 72 78 83 71 72 68 71 59 59
56 61 62 66 66 68 72 73 75 77 80 81 80 77 79 71 59 52 48 48 47 40 43 47 51 57 61 61 60 60 58 60 63 68 74 76 82 81 77 73 72 67 63
62 63 66 70 65 73 78 79 79 80 82 85 82 80 80 71 56 54 52 51 50 47 45 53 58 63 65 59 53 54 57 60 60 67 71 74 80 86 84 82 84 76 65
63 67 71 67 69 76 80 82 81 83 84 85 85 82 81 68 59 56 52 56 53 47 57 60 64 66 63 56 50 50 51 54 58 63 70 75 78 83 88 86 81 77 73
65 68 70 70 73 79 83 83 82 86 85 89 86 85 83 64 61 58 57 55 49 62 67 67 65 63 60 55 47 47 46 50 53 59 68 72 76 79 87 90 83 77 69
73 70 73 69 75 81 84 83 82 87 89 94 88 90 75 61 63 60 59 60 68 70 70 69 66 60 57 50 45 44 43 45 51 57 66 71 77 80 86 89 89 77 73
73 73 75 71 79 85 85 85 79 88 88 93 91 90 68 64 63 64 68 74 78 74 69 66 63 58 52 44 40 38 38 42 47 54 63 68 75 74 81 92 92 84 75
72 71 68 78 86 86 86 81 78 94 93 95 98 79 71 68 65 66 79 81 78 74 66 63 57 52 43 37 34 32 32 36 42 50 58 65 72 75 79 90 92 87 77
66 67 75 88 88 83 78 74 82 95 98 94 91 76 68 70 77 83 87 81 78 71 65 56 52 42 36 33 28 27 27 28 34 42 52 62 69 76 79 88 97 89 83
77 76 83 88 79 82 79 77 90 98 88 89 86 95 78 96 91 89 85 80 76 70 59 51 46 36 33 29 25 23 22 24 29 38 45 53 63 72 79 90 97 93 86
74 82 78 76 77 78 84 88 87 86 76 88 93 100 100 98 97 93 88 81 75 64 52 45 42 32 29 25 23 22 21 19 19 25 34 42 54 68 79 89 96 96 89
82 63 58 62 70 81 84 81 86 89 105 107 103 96 99 98 100 95 87 80 66 54 47 42 37 27 25 24 24 23 20 16 16 19 26 34 47 59 75 89 93 100 93
51 52 59 70 83 87 82 90 103 113 114 113 99 99 97 101 99 90 82 68 56 47 42 36 32 25 25 26 27 24 16 13 14 17 20 27 39 54 69 88 91 95 94
71 86 98 88 91 93 105 115 119 119 115 103 100 98 102 100 92 83 70 59 49 43 37 32 29 24 28 29 31 24 17 13 9 11 10 21 32 50 67 84 90 91 93
81 77 81 90 97 106 111 114 116 109 102 102 104 103 97 92 85 69 58 51 45 39 34 30 27 25 33 35 35 27 21 19 23 15 19 19 26 42 62 78 88 89 88
99 97 98 102 108 110 110 101 94 101 95 102 101 94 90 84 70 60 52 45 42 37 33 28 27 29 37 41 41 31 28 24 24 23 34 35 39 35 54 73 85 85 87
101 102 104 106 98 91 92 86 95 94 101 104 96 91 78 66 60 52 48 42 38 35 31 28 29 33 44 45 44 37 33 27 25 21 38 32 27 34 38 58 77 81 83
99 96 85 84 84 86 87 99 97 101 97 98 90 76 68 60 53 48 42 39 38 34 30 29 32 34 49 50 49 44 39 33 34 31 35 30 28 45 47 35 61 80 82
84 81 90 96 85 88 94 94 105 104 99 88 73 66 59 52 46 44 39 37 37 34 31 29 36 37 50 56 53 52 47 41 40 39 37 36 38 36 36 40 48 74 85
90 95 99 96 93 95 97 100 109 101 88 74 68 57 53 48 43 41 41 37 35 35 33 31 35 44 45 62 60 58 56 50 45 45 43 43 46 43 45 48 47 45 72
100 101 95 100 102 101 103 102 101 87 76 69 61 53 47 43 41 40 38 37 36 35 34 32 32 40 48 61 69 65 65 58 55 53 50 49 50 51 51 52 49 45 56
103 105 102 101 103 104 101 98 87 79 66 55 56 50 45 41 38 38 35 35 36 37 37 33 36 36 45 53 72 74 72 69 67 61 59 58 57 62 59 60 59 60 61
103 105 105 104 101 98 95 82 72 64 58 48 47 47 45 41 36 36 37 36 36 36 37 35 35 38 40 53 61 80 79 78 74 73 68 69 64 71 69 68 67 69 69
98 101 101 96 90 81 75 65 57 53 51 45 42 41 39 39 39 32 31 30 30 30 32 31 30 32 38 43 59 68 84 85 86 83 79 75 72 72 74 76 75 74 77
76 75 74 72 68 63 59 53 51 44 41 41 37 33 31 30 28 26 25 25 25 26 25 27 27 27 31 37 48 64 71 82 91 91 91 86 85 81 78 80 82 83 81

GFSGL_250_spd_012.txt.gz
Wind_Speed
47 44 50 56 59 58 56 58 62 60 64 67 72 72 73 74 76 82 84 74 57 48 42 39 39 43 48 52 58 61 67 71 72 73 68 66 68 75 78 72 71 69 63
50 47 56 62 64 53 58 60 63 65 67 69 74 76 74 75 76 82 93 70 53 47 47 41 38 40 45 50 57 61 66 69 73 77 76 70 70 73 75 80 75 72 70
52 52 55 56 50 57 67 68 68 69 68 70 76 79 79 76 77 82 98 70 53 52 48 42 38 35 40 44 52 57 58 63 69 73 79 77 77 75 79 79 82 75 73
54 56 51 53 55 69 72 71 70 71 69 72 80 78 81 74 79 82 93 74 62 54 47 46 43 46 56 56 54 55 55 58 62 70 75 81 85 83 82 84 86 82 80
57 56 59 60 65 69 70 70 74 72 69 76 85 82 81 77 76 84 96 90 81 64 62 63 69 64 61 58 54 53 56 59 64 71 77 81 88 87 82 86 88 91 84
59 58 58 60 69 70 70 72 74 70 71 79 87 85 80 78 79 88 96 97 102 82 69 74 71 68 62 58 56 54 52 55 61 61 67 71 80 85 84 84 90 93 94
58 62 59 67 68 68 69 74 73 71 75 82 87 84 80 81 81 98 100 108 109 108 83 82 77 69 62 59 58 55 51 52 51 52 56 60 68 74 78 80 88 93 96
59 64 68 66 69 71 74 71 72 75 79 80 86 81 82 85 79 100 107 108 113 114 93 86 82 75 64 60 57 54 50 46 45 46 48 55 61 67 72 77 84 91 98
62 66 64 70 71 73 72 74 75 78 84 80 71 73 79 77 88 103 111 114 117 116 100 91 83 70 64 63 57 52 48 41 40 40 45 48 53 61 67 73 81 90 100
67 63 62 69 70 68 71 73 82 85 79 52 55 65 71 82 102 110 114 119 120 111 102 94 80 67 60 56 50 47 43 35 35 37 41 45 50 55 65 72 81 91 99
55 59 61 64 62 74 77 79 81 63 37 56 68 74 87 93 100 107 116 122 120 106 104 92 78 66 56 53 44 40 35 31 31 32 34 37 42 50 65 72 78 90 98
61 61 60 60 64 66 64 70 49 43 56 80 67 84 97 106 111 115 121 118 107 101 101 88 77 59 54 47 38 34 29 26 27 25 26 31 38 45 60 71 76 87 97
58 55 62 53 52 46 60 58 52 53 79 87 88 96 105 110 116 120 122 108 100 104 95 84 66 54 50 40 33 29 24 26 24 21 25 25 30 38 50 64 70 82 94
55 56 63 51 50 53 63 65 71 77 95 97 95 105 108 115 121 116 107 99 105 99 89 70 57 47 42 35 29 25 27 28 24 24 22 20 23 27 37 52 65 77 88
72 71 71 75 69 70 79 86 86 100 103 103 110 111 114 120 109 103 99 98 101 88 69 59 49 42 36 31 28 25 30 27 24 22 15 20 22 15 29 40 55 69 81
83 81 79 74 72 81 90 94 98 105 108 112 117 119 123 105 100 95 96 92 82 67 60 53 43 38 34 29 28 29 33 29 26 22 20 16 13 20 18 32 46 62 73
73 72 65 71 84 95 94 97 102 109 110 114 118 117 105 101 100 95 90 81 70 61 52 46 39 34 30 29 30 34 37 32 27 25 16 22 17 18 21 27 46 58 68
68 72 80 82 89 94 100 103 106 109 109 106 92 90 96 95 94 87 81 70 58 50 45 40 36 33 29 30 32 37 42 37 31 33 26 34 30 26 29 23 40 56 67
72 71 74 82 88 98 99 96 93 98 82 80 95 96 94 97 91 80 68 60 52 46 42 37 34 32 28 31 36 43 46 44 38 36 34 37 36 33 36 34 49 54 66
84 88 94 91 86 83 88 86 79 83 89 98 99 97 94 91 80 70 61 53 49 44 40 38 34 31 30 33 39 47 49 49 44 40 36 36 41 34 35 38 46 60 59
75 76 82 88 92 95 95 95 94 95 97 101 100 96 89 81 72 63 54 48 45 41 38 38 35 31 33 35 42 51 56 56 51 45 42 36 41 39 36 40 46 56 67
83 86 89 92 95 98 97 99 100 102 104 103 97 90 82 75 65 59 53 47 41 40 37 36 35 34 34 37 41 46 61 61 58 53 48 45 43 43 46 47 47 52 65
94 95 95 96 96 96 98 99 103 104 103 98 92 85 76 68 56 53 52 46 40 38 37 37 36 34 35 37 41 49 59 68 63 62 56 53 53 50 51 54 53 54 57
93 92 90 90 93 94 95 94 94 96 97 93 85 75 68 58 52 44 44 43 40 37 36 37 37 37 36 38 42 44 52 69 73 69 65 59 58 58 56 56 62 60 60
79 79 80 82 84 87 89 90 86 83 78 73 69 63 58 53 47 39 36 36 35 32 30 30 30 30 30 33 40 46 48 57 74 77 76 70 66 66 63 61 60 62 59
63 63 63 65 65 68 68 68 68 65 62 59 54 48 45 44 40 37 33 30 31 30 28 25 27 27 25 26 30 38 47 51 60 79 83 82 75 72 71 67 68 68 64